Meteo pe oră la 10-y Oktyabr

Astăzi, 15 Iunie, Marţi

Timp Temperatura Precipitaţii Vânt Presiune Umiditate
00:00 +18°C° 0 mm 1 m/s 742 mmHg 85%
01:00 +18°C° 0 mm 1 m/s 741 mmHg 86%
02:00 +18°C° 0 mm 1 m/s 741 mmHg 86%
03:00 +18°C° 0 mm 1 m/s 741 mmHg 87%
04:00 +18°C° 0 mm 1 m/s 741 mmHg 86%
05:00 +19°C° 0 mm 1 m/s 741 mmHg 86%
06:00 +19°C° 0 mm 1 m/s 741 mmHg 86%
07:00 +21°C° 0.1 mm 1 m/s 741 mmHg 82%
08:00 +22°C° 0.1 mm 1 m/s 741 mmHg 78%
09:00 +23°C° 0.1 mm 1 m/s 741 mmHg 74%
10:00 +24°C° 0.7 mm 1 m/s 741 mmHg 70%
11:00 +25°C° 0.7 mm 1 m/s 741 mmHg 65%
12:00 +26°C° 0.7 mm 1 m/s 741 mmHg 60%
13:00 +26°C° 0 mm 1 m/s 740 mmHg 59%
14:00 +27°C° 0 mm 1 m/s 740 mmHg 58%
15:00 +27°C° 0 mm 1 m/s 740 mmHg 58%
16:00 +26°C° 0.3 mm 1 m/s 739 mmHg 62%
17:00 +26°C° 0.3 mm 1 m/s 739 mmHg 66%
18:00 +26°C° 0.3 mm 1 m/s 739 mmHg 70%
19:00 +24°C° 0.2 mm 1 m/s 738 mmHg 73%
20:00 +22°C° 0.2 mm 1 m/s 738 mmHg 77%
21:00 +21°C° 0.2 mm 1 m/s 738 mmHg 80%
22:00 +20°C° 0.3 mm 1 m/s 738 mmHg 83%
23:00 +19°C° 0.3 mm 1 m/s 738 mmHg 85%

Mâine, 16 Iunie, Miercuri

Timp Temperatura Precipitaţii Vânt Presiune Umiditate
00:00 +19°C° 0.3 mm 1 m/s 738 mmHg 87%
01:00 +17°C° 0 mm 2 m/s 738 mmHg 88%
02:00 +17°C° 0 mm 2 m/s 738 mmHg 90%
03:00 +16°C° 0 mm 2 m/s 738 mmHg 92%
04:00 +17°C° 0 mm 2 m/s 738 mmHg 92%
05:00 +17°C° 0 mm 2 m/s 738 mmHg 93%
06:00 +17°C° 0 mm 2 m/s 738 mmHg 93%
07:00 +19°C° 0 mm 3 m/s 739 mmHg 88%
08:00 +20°C° 0 mm 3 m/s 739 mmHg 82%
09:00 +21°C° 0 mm 4 m/s 739 mmHg 77%
10:00 +22°C° 0 mm 4 m/s 740 mmHg 73%
11:00 +23°C° 0 mm 4 m/s 740 mmHg 69%
12:00 +25°C° 0 mm 5 m/s 740 mmHg 65%
13:00 +25°C° 0 mm 5 m/s 740 mmHg 64%
14:00 +25°C° 0 mm 5 m/s 740 mmHg 64%
15:00 +25°C° 0 mm 5 m/s 741 mmHg 63%
16:00 +25°C° 0 mm 4 m/s 741 mmHg 66%
17:00 +23°C° 0 mm 4 m/s 741 mmHg 70%
18:00 +23°C° 0 mm 4 m/s 741 mmHg 73%
19:00 +21°C° 0 mm 3 m/s 742 mmHg 77%
20:00 +20°C° 0 mm 3 m/s 742 mmHg 81%
21:00 +18°C° 0 mm 2 m/s 743 mmHg 84%
22:00 +17°C° 0 mm 3 m/s 743 mmHg 83%
23:00 +16°C° 0 mm 3 m/s 743 mmHg 83%

Poimâine, 17 Iunie, Joi

Timp Temperatura Precipitaţii Vânt Presiune Umiditate
00:00 +14°C° 0 mm 3 m/s 744 mmHg 82%
01:00 +14°C° 0 mm 3 m/s 744 mmHg 81%
02:00 +13°C° 0 mm 3 m/s 745 mmHg 79%
03:00 +12°C° 0 mm 3 m/s 745 mmHg 78%
04:00 +12°C° 0 mm 3 m/s 745 mmHg 79%
05:00 +13°C° 0 mm 3 m/s 746 mmHg 80%
06:00 +13°C° 0 mm 3 m/s 746 mmHg 82%
07:00 +14°C° 0 mm 3 m/s 747 mmHg 76%
08:00 +17°C° 0 mm 4 m/s 747 mmHg 71%
09:00 +19°C° 0 mm 4 m/s 747 mmHg 65%
10:00 +19°C° 0 mm 4 m/s 748 mmHg 62%
11:00 +20°C° 0 mm 4 m/s 748 mmHg 59%
12:00 +21°C° 0 mm 4 m/s 748 mmHg 56%
13:00 +21°C° 0 mm 4 m/s 748 mmHg 56%
14:00 +22°C° 0 mm 4 m/s 748 mmHg 56%
15:00 +22°C° 0 mm 4 m/s 748 mmHg 55%
16:00 +22°C° 0 mm 4 m/s 748 mmHg 60%
17:00 +21°C° 0 mm 4 m/s 748 mmHg 64%
18:00 +21°C° 0 mm 3 m/s 748 mmHg 68%
19:00 +19°C° 0 mm 3 m/s 749 mmHg 70%
20:00 +18°C° 0 mm 2 m/s 749 mmHg 73%
21:00 +16°C° 0 mm 2 m/s 749 mmHg 76%
22:00 +15°C° 0 mm 2 m/s 749 mmHg 76%
23:00 +15°C° 0 mm 2 m/s 749 mmHg 76%

18 Iunie, Vineri

Timp Temperatura Precipitaţii Vânt Presiune Umiditate
00:00 +14°C° 0 mm 2 m/s 749 mmHg 77%
01:00 +14°C° 0 mm 2 m/s 750 mmHg 78%
02:00 +14°C° 0 mm 2 m/s 750 mmHg 79%
03:00 +13°C° 0 mm 1 m/s 750 mmHg 80%
04:00 +14°C° 0 mm 1 m/s 750 mmHg 80%
05:00 +14°C° 0 mm 1 m/s 751 mmHg 80%
06:00 +15°C° 0 mm 1 m/s 751 mmHg 80%
07:00 +17°C° 0 mm 2 m/s 751 mmHg 76%
08:00 +18°C° 0 mm 2 m/s 751 mmHg 71%
09:00 +20°C° 0 mm 2 m/s 751 mmHg 67%
10:00 +21°C° 0 mm 2 m/s 751 mmHg 64%
11:00 +23°C° 0 mm 2 m/s 751 mmHg 61%
12:00 +24°C° 0 mm 2 m/s 751 mmHg 57%
13:00 +24°C° 0 mm 2 m/s 751 mmHg 57%
14:00 +24°C° 0 mm 2 m/s 751 mmHg 56%
15:00 +24°C° 0 mm 2 m/s 751 mmHg 56%
16:00 +24°C° 0 mm 2 m/s 751 mmHg 60%
17:00 +24°C° 0 mm 2 m/s 751 mmHg 64%
18:00 +24°C° 0 mm 2 m/s 751 mmHg 68%
19:00 +21°C° 0 mm 2 m/s 751 mmHg 72%
20:00 +19°C° 0 mm 2 m/s 751 mmHg 76%
21:00 +18°C° 0 mm 2 m/s 751 mmHg 81%
22:00 +17°C° 0 mm 2 m/s 751 mmHg 83%
23:00 +16°C° 0 mm 1 m/s 751 mmHg 84%

19 Iunie, Sâmbătă

Timp Temperatura Precipitaţii Vânt Presiune Umiditate
00:00 +16°C° 0 mm 1 m/s 751 mmHg 86%
01:00 +15°C° 0 mm 1 m/s 751 mmHg 86%
02:00 +15°C° 0 mm 1 m/s 751 mmHg 87%
03:00 +14°C° 0 mm 1 m/s 752 mmHg 87%
04:00 +15°C° 0 mm 1 m/s 752 mmHg 86%
05:00 +16°C° 0 mm 1 m/s 752 mmHg 85%
06:00 +18°C° 0 mm 1 m/s 752 mmHg 84%
07:00 +19°C° 0 mm 1 m/s 752 mmHg 79%
08:00 +20°C° 0 mm 1 m/s 752 mmHg 75%
09:00 +21°C° 0 mm 2 m/s 752 mmHg 70%
10:00 +23°C° 0 mm 2 m/s 752 mmHg 68%
11:00 +24°C° 0 mm 2 m/s 752 mmHg 65%
12:00 +24°C° 0 mm 2 m/s 752 mmHg 62%
13:00 +25°C° 0 mm 2 m/s 751 mmHg 60%
14:00 +25°C° 0 mm 2 m/s 751 mmHg 59%
15:00 +25°C° 0 mm 2 m/s 751 mmHg 58%
16:00 +25°C° 0 mm 2 m/s 750 mmHg 61%
17:00 +25°C° 0 mm 2 m/s 750 mmHg 63%
18:00 +25°C° 0 mm 2 m/s 750 mmHg 66%
19:00 +23°C° 0 mm 1 m/s 750 mmHg 71%
20:00 +21°C° 0 mm 1 m/s 750 mmHg 75%
21:00 +20°C° 0 mm 1 m/s 750 mmHg 79%
22:00 +19°C° 0 mm 1 m/s 750 mmHg 81%
23:00 +19°C° 0 mm 1 m/s 750 mmHg 83%

20 Iunie, Duminică

Timp Temperatura Precipitaţii Vânt Presiune Umiditate
00:00 +18°C° 0 mm 1 m/s 750 mmHg 85%
01:00 +18°C° 0 mm 1 m/s 750 mmHg 86%
02:00 +16°C° 0 mm 1 m/s 750 mmHg 87%
03:00 +16°C° 0 mm 1 m/s 750 mmHg 89%
04:00 +16°C° 0 mm 1 m/s 750 mmHg 88%
05:00 +18°C° 0 mm 1 m/s 750 mmHg 87%
06:00 +19°C° 0 mm 1 m/s 750 mmHg 86%
07:00 +20°C° 0 mm 1 m/s 750 mmHg 81%
08:00 +22°C° 0 mm 1 m/s 750 mmHg 76%
09:00 +23°C° 0 mm 1 m/s 750 mmHg 72%
10:00 +24°C° 0 mm 1 m/s 750 mmHg 68%
11:00 +25°C° 0 mm 2 m/s 750 mmHg 65%
12:00 +25°C° 0 mm 2 m/s 749 mmHg 61%
13:00 +26°C° 0 mm 2 m/s 749 mmHg 60%
14:00 +26°C° 0 mm 2 m/s 749 mmHg 59%
15:00 +26°C° 0 mm 2 m/s 749 mmHg 57%
16:00 +26°C° 0 mm 2 m/s 748 mmHg 60%
17:00 +26°C° 0 mm 2 m/s 748 mmHg 63%
18:00 +26°C° 0 mm 1 m/s 748 mmHg 66%
19:00 +24°C° 0 mm 1 m/s 748 mmHg 71%
20:00 +23°C° 0 mm 1 m/s 748 mmHg 76%
21:00 +21°C° 0 mm 1 m/s 748 mmHg 81%
22:00 +20°C° 0 mm 1 m/s 748 mmHg 82%
23:00 +19°C° 0 mm 1 m/s 748 mmHg 82%
Arată mai mult

Formular de consimțământ

Meteoprog și furnizorii noștri de servicii pot stoca și accesa date personale, precum cookies, identificatori de dispozitiv sau alte tehnologii similare pe dispozitivul dumneavoastră și procesa astfel de date pentru a personaliza conținutul și reclamele, dar și pentru a oferi caracteristici de social media și pentru a analiza traficul.

  • Stocarea și/sau accesarea informațiilor pe dispozitivul dumneavoastră

    Cookies, identificatori de dispozitiv sau alte informații pot fi stocate sau accesate pe dispozitiv în scopurile indicate mai sus.

  • Reclame și conținut personalizat, evaluarea reclamelor și a conținutului, informații despre audiențe și dezvoltarea produselor

    Reclamele și conținutul pot fi personalizate pe baza unui profil. Pot fi adăugate date suplimentare pentru a personaliza mai bine reclamele și conținutul. Performanța reclamelor și conținutului poate fi măsurată. Pot fi obținute informații despre utilizatorii care au văzut reclamele și conținutul. Aceste date pot fi utilizate pentru a dezvolta sau îmbunătăți experiența utilizatorilor, sistemele și software-ul.

Dând clic pe ‘Sunt de acord’, permiteți utilizarea cookie-urilor menționate, a identificatorilor de dispozitiv, balizelor web sau altor tehnologii similare. Setările pot fi modificate din browser-ul dispozitivului dumneavoastră.

În anumite scopuri, interesele legitime pot prima asupra consimțământului. Puteți citi mai multe informații în acest sens în Politica privind Confidențialitatea Datelor și Cookie.